Index of /20260425/WXO-DD/model_rdps/10km/00/063
Name Last modified Size Description
Parent Directory -
20260425T00Z_MSC_RDPS_AbsoluteVorticity_IsbL-0250_RLatLon0.09_PT063H.grib2 2026-04-25 03:03 600K
20260425T00Z_MSC_RDPS_AbsoluteVorticity_IsbL-0500_RLatLon0.09_PT063H.grib2 2026-04-25 03:03 555K
20260425T00Z_MSC_RDPS_AbsoluteVorticity_IsbL-0700_RLatLon0.09_PT063H.grib2 2026-04-25 03:03 614K
20260425T00Z_MSC_RDPS_AbsoluteVorticity_IsbL-0850_RLatLon0.09_PT063H.grib2 2026-04-25 03:03 781K
20260425T00Z_MSC_RDPS_AirTemp_AGL-120m_RLatLon0.09_PT063H.grib2 2026-04-25 03:03 388K
20260425T00Z_MSC_RDPS_AirTemp_AGL-2m_RLatLon0.09_PT063H.grib2 2026-04-25 03:03 648K
20260425T00Z_MSC_RDPS_AirTemp_AGL-40m_RLatLon0.09_PT063H.grib2 2026-04-25 03:03 415K
20260425T00Z_MSC_RDPS_AirTemp_AGL-80m_RLatLon0.09_PT063H.grib2 2026-04-25 03:03 410K
20260425T00Z_MSC_RDPS_AirTemp_IsbL-0001_RLatLon0.09_PT063H.grib2 2026-04-25 03:03 276K
20260425T00Z_MSC_RDPS_AirTemp_IsbL-0005_RLatLon0.09_PT063H.grib2 2026-04-25 03:03 331K
20260425T00Z_MSC_RDPS_AirTemp_IsbL-0010_RLatLon0.09_PT063H.grib2 2026-04-25 03:03 305K
20260425T00Z_MSC_RDPS_AirTemp_IsbL-0020_RLatLon0.09_PT063H.grib2 2026-04-25 03:03 322K
20260425T00Z_MSC_RDPS_AirTemp_IsbL-0030_RLatLon0.09_PT063H.grib2 2026-04-25 03:03 340K
20260425T00Z_MSC_RDPS_AirTemp_IsbL-0050_RLatLon0.09_PT063H.grib2 2026-04-25 03:03 318K
20260425T00Z_MSC_RDPS_AirTemp_IsbL-0100_RLatLon0.09_PT063H.grib2 2026-04-25 03:03 418K
20260425T00Z_MSC_RDPS_AirTemp_IsbL-0150_RLatLon0.09_PT063H.grib2 2026-04-25 03:03 412K
20260425T00Z_MSC_RDPS_AirTemp_IsbL-0175_RLatLon0.09_PT063H.grib2 2026-04-25 03:03 405K
20260425T00Z_MSC_RDPS_AirTemp_IsbL-0200_RLatLon0.09_PT063H.grib2 2026-04-25 03:03 411K
20260425T00Z_MSC_RDPS_AirTemp_IsbL-0225_RLatLon0.09_PT063H.grib2 2026-04-25 03:03 412K
20260425T00Z_MSC_RDPS_AirTemp_IsbL-0250_RLatLon0.09_PT063H.grib2 2026-04-25 03:03 419K
20260425T00Z_MSC_RDPS_AirTemp_IsbL-0275_RLatLon0.09_PT063H.grib2 2026-04-25 03:03 402K
20260425T00Z_MSC_RDPS_AirTemp_IsbL-0300_RLatLon0.09_PT063H.grib2 2026-04-25 03:03 408K
20260425T00Z_MSC_RDPS_AirTemp_IsbL-0350_RLatLon0.09_PT063H.grib2 2026-04-25 03:03 418K
20260425T00Z_MSC_RDPS_AirTemp_IsbL-0400_RLatLon0.09_PT063H.grib2 2026-04-25 03:03 418K
20260425T00Z_MSC_RDPS_AirTemp_IsbL-0450_RLatLon0.09_PT063H.grib2 2026-04-25 03:03 425K
20260425T00Z_MSC_RDPS_AirTemp_IsbL-0500_RLatLon0.09_PT063H.grib2 2026-04-25 03:03 401K
20260425T00Z_MSC_RDPS_AirTemp_IsbL-0550_RLatLon0.09_PT063H.grib2 2026-04-25 03:03 420K
20260425T00Z_MSC_RDPS_AirTemp_IsbL-0600_RLatLon0.09_PT063H.grib2 2026-04-25 03:03 437K
20260425T00Z_MSC_RDPS_AirTemp_IsbL-0650_RLatLon0.09_PT063H.grib2 2026-04-25 03:03 452K
20260425T00Z_MSC_RDPS_AirTemp_IsbL-0700_RLatLon0.09_PT063H.grib2 2026-04-25 03:03 478K
20260425T00Z_MSC_RDPS_AirTemp_IsbL-0750_RLatLon0.09_PT063H.grib2 2026-04-25 03:03 408K
20260425T00Z_MSC_RDPS_AirTemp_IsbL-0800_RLatLon0.09_PT063H.grib2 2026-04-25 03:03 459K
20260425T00Z_MSC_RDPS_AirTemp_IsbL-0850_RLatLon0.09_PT063H.grib2 2026-04-25 03:03 509K
20260425T00Z_MSC_RDPS_AirTemp_IsbL-0875_RLatLon0.09_PT063H.grib2 2026-04-25 03:03 525K
20260425T00Z_MSC_RDPS_AirTemp_IsbL-0900_RLatLon0.09_PT063H.grib2 2026-04-25 03:03 531K
20260425T00Z_MSC_RDPS_AirTemp_IsbL-0925_RLatLon0.09_PT063H.grib2 2026-04-25 03:03 533K
20260425T00Z_MSC_RDPS_AirTemp_IsbL-0950_RLatLon0.09_PT063H.grib2 2026-04-25 03:03 535K
20260425T00Z_MSC_RDPS_AirTemp_IsbL-0970_RLatLon0.09_PT063H.grib2 2026-04-25 03:03 535K
20260425T00Z_MSC_RDPS_AirTemp_IsbL-0985_RLatLon0.09_PT063H.grib2 2026-04-25 03:03 529K
20260425T00Z_MSC_RDPS_AirTemp_IsbL-1000_RLatLon0.09_PT063H.grib2 2026-04-25 03:03 512K
20260425T00Z_MSC_RDPS_AirTemp_IsbL-1015_RLatLon0.09_PT063H.grib2 2026-04-25 03:03 505K
20260425T00Z_MSC_RDPS_Albedo_Sfc_RLatLon0.09_PT063H.grib2 2026-04-25 03:03 166K
20260425T00Z_MSC_RDPS_CAPE_Sfc_RLatLon0.09_PT063H.grib2 2026-04-25 03:03 1.8M
20260425T00Z_MSC_RDPS_CIN_Sfc_RLatLon0.09_PT063H.grib2 2026-04-25 03:03 1.1M
20260425T00Z_MSC_RDPS_CloudWater_EAtm_RLatLon0.09_PT063H.grib2 2026-04-25 03:03 218K
20260425T00Z_MSC_RDPS_ConvectivePrecip-Accum_Sfc_RLatLon0.09_PT063H.grib2 2026-04-25 03:03 1.2M
20260425T00Z_MSC_RDPS_DewPointDepression_AGL-2m_RLatLon0.09_PT063H.grib2 2026-04-25 03:03 417K
20260425T00Z_MSC_RDPS_DewPointDepression_IsbL-0001_RLatLon0.09_PT063H.grib2 2026-04-25 03:03 193
20260425T00Z_MSC_RDPS_DewPointDepression_IsbL-0005_RLatLon0.09_PT063H.grib2 2026-04-25 03:03 193
20260425T00Z_MSC_RDPS_DewPointDepression_IsbL-0010_RLatLon0.09_PT063H.grib2 2026-04-25 03:03 193
20260425T00Z_MSC_RDPS_DewPointDepression_IsbL-0020_RLatLon0.09_PT063H.grib2 2026-04-25 03:03 193
20260425T00Z_MSC_RDPS_DewPointDepression_IsbL-0030_RLatLon0.09_PT063H.grib2 2026-04-25 03:03 193
20260425T00Z_MSC_RDPS_DewPointDepression_IsbL-0050_RLatLon0.09_PT063H.grib2 2026-04-25 03:03 89K
20260425T00Z_MSC_RDPS_DewPointDepression_IsbL-0100_RLatLon0.09_PT063H.grib2 2026-04-25 03:03 123K
20260425T00Z_MSC_RDPS_DewPointDepression_IsbL-0150_RLatLon0.09_PT063H.grib2 2026-04-25 03:03 144K
20260425T00Z_MSC_RDPS_DewPointDepression_IsbL-0175_RLatLon0.09_PT063H.grib2 2026-04-25 03:03 178K
20260425T00Z_MSC_RDPS_DewPointDepression_IsbL-0200_RLatLon0.09_PT063H.grib2 2026-04-25 03:03 217K
20260425T00Z_MSC_RDPS_DewPointDepression_IsbL-0225_RLatLon0.09_PT063H.grib2 2026-04-25 03:03 253K
20260425T00Z_MSC_RDPS_DewPointDepression_IsbL-0250_RLatLon0.09_PT063H.grib2 2026-04-25 03:03 291K
20260425T00Z_MSC_RDPS_DewPointDepression_IsbL-0275_RLatLon0.09_PT063H.grib2 2026-04-25 03:03 301K
20260425T00Z_MSC_RDPS_DewPointDepression_IsbL-0300_RLatLon0.09_PT063H.grib2 2026-04-25 03:03 319K
20260425T00Z_MSC_RDPS_DewPointDepression_IsbL-0350_RLatLon0.09_PT063H.grib2 2026-04-25 03:03 324K
20260425T00Z_MSC_RDPS_DewPointDepression_IsbL-0400_RLatLon0.09_PT063H.grib2 2026-04-25 03:03 343K
20260425T00Z_MSC_RDPS_DewPointDepression_IsbL-0450_RLatLon0.09_PT063H.grib2 2026-04-25 03:03 354K
20260425T00Z_MSC_RDPS_DewPointDepression_IsbL-0500_RLatLon0.09_PT063H.grib2 2026-04-25 03:03 360K
20260425T00Z_MSC_RDPS_DewPointDepression_IsbL-0550_RLatLon0.09_PT063H.grib2 2026-04-25 03:03 367K
20260425T00Z_MSC_RDPS_DewPointDepression_IsbL-0600_RLatLon0.09_PT063H.grib2 2026-04-25 03:03 376K
20260425T00Z_MSC_RDPS_DewPointDepression_IsbL-0650_RLatLon0.09_PT063H.grib2 2026-04-25 03:03 384K
20260425T00Z_MSC_RDPS_DewPointDepression_IsbL-0700_RLatLon0.09_PT063H.grib2 2026-04-25 03:03 397K
20260425T00Z_MSC_RDPS_DewPointDepression_IsbL-0750_RLatLon0.09_PT063H.grib2 2026-04-25 03:03 421K
20260425T00Z_MSC_RDPS_DewPointDepression_IsbL-0800_RLatLon0.09_PT063H.grib2 2026-04-25 03:03 457K
20260425T00Z_MSC_RDPS_DewPointDepression_IsbL-0850_RLatLon0.09_PT063H.grib2 2026-04-25 03:03 483K
20260425T00Z_MSC_RDPS_DewPointDepression_IsbL-0875_RLatLon0.09_PT063H.grib2 2026-04-25 03:03 482K
20260425T00Z_MSC_RDPS_DewPointDepression_IsbL-0900_RLatLon0.09_PT063H.grib2 2026-04-25 03:03 471K
20260425T00Z_MSC_RDPS_DewPointDepression_IsbL-0925_RLatLon0.09_PT063H.grib2 2026-04-25 03:03 461K
20260425T00Z_MSC_RDPS_DewPointDepression_IsbL-0950_RLatLon0.09_PT063H.grib2 2026-04-25 03:03 452K
20260425T00Z_MSC_RDPS_DewPointDepression_IsbL-0970_RLatLon0.09_PT063H.grib2 2026-04-25 03:03 447K
20260425T00Z_MSC_RDPS_DewPointDepression_IsbL-0985_RLatLon0.09_PT063H.grib2 2026-04-25 03:03 445K
20260425T00Z_MSC_RDPS_DewPointDepression_IsbL-1000_RLatLon0.09_PT063H.grib2 2026-04-25 03:03 440K
20260425T00Z_MSC_RDPS_DewPointDepression_IsbL-1015_RLatLon0.09_PT063H.grib2 2026-04-25 03:03 433K
20260425T00Z_MSC_RDPS_DewPoint_AGL-2m_RLatLon0.09_PT063H.grib2 2026-04-25 03:03 408K
20260425T00Z_MSC_RDPS_DownwardLongwaveRadiationFlux-Accum_Sfc_RLatLon0.09_PT063H.grib2 2026-04-25 03:03 417K
20260425T00Z_MSC_RDPS_DownwardShortwaveRadiationFlux-Accum_NTAtm_RLatLon0.09_PT063H.grib2 2026-04-25 03:03 106K
20260425T00Z_MSC_RDPS_DownwardShortwaveRadiationFlux-Accum_Sfc_RLatLon0.09_PT063H.grib2 2026-04-25 03:03 591K
20260425T00Z_MSC_RDPS_FreezingRain-Accum1h_Sfc_RLatLon0.09_PT063H.grib2 2026-04-25 03:03 37K
20260425T00Z_MSC_RDPS_FreezingRain-Accum3h_Sfc_RLatLon0.09_PT063H.grib2 2026-04-25 03:03 55K
20260425T00Z_MSC_RDPS_FreezingRain-Accum_Sfc_RLatLon0.09_PT063H.grib2 2026-04-25 03:03 192K
20260425T00Z_MSC_RDPS_GeopotentialHeight_IsbL-0001_RLatLon0.09_PT063H.grib2 2026-04-25 03:03 272K
20260425T00Z_MSC_RDPS_GeopotentialHeight_IsbL-0005_RLatLon0.09_PT063H.grib2 2026-04-25 03:03 310K
20260425T00Z_MSC_RDPS_GeopotentialHeight_IsbL-0010_RLatLon0.09_PT063H.grib2 2026-04-25 03:03 340K
20260425T00Z_MSC_RDPS_GeopotentialHeight_IsbL-0020_RLatLon0.09_PT063H.grib2 2026-04-25 03:03 306K
20260425T00Z_MSC_RDPS_GeopotentialHeight_IsbL-0030_RLatLon0.09_PT063H.grib2 2026-04-25 03:03 308K
20260425T00Z_MSC_RDPS_GeopotentialHeight_IsbL-0050_RLatLon0.09_PT063H.grib2 2026-04-25 03:03 308K
20260425T00Z_MSC_RDPS_GeopotentialHeight_IsbL-0100_RLatLon0.09_PT063H.grib2 2026-04-25 03:03 286K
20260425T00Z_MSC_RDPS_GeopotentialHeight_IsbL-0150_RLatLon0.09_PT063H.grib2 2026-04-25 03:03 226K
20260425T00Z_MSC_RDPS_GeopotentialHeight_IsbL-0175_RLatLon0.09_PT063H.grib2 2026-04-25 03:03 229K
20260425T00Z_MSC_RDPS_GeopotentialHeight_IsbL-0200_RLatLon0.09_PT063H.grib2 2026-04-25 03:03 262K
20260425T00Z_MSC_RDPS_GeopotentialHeight_IsbL-0225_RLatLon0.09_PT063H.grib2 2026-04-25 03:03 264K
20260425T00Z_MSC_RDPS_GeopotentialHeight_IsbL-0250_RLatLon0.09_PT063H.grib2 2026-04-25 03:03 265K
20260425T00Z_MSC_RDPS_GeopotentialHeight_IsbL-0275_RLatLon0.09_PT063H.grib2 2026-04-25 03:03 264K
20260425T00Z_MSC_RDPS_GeopotentialHeight_IsbL-0300_RLatLon0.09_PT063H.grib2 2026-04-25 03:03 233K
20260425T00Z_MSC_RDPS_GeopotentialHeight_IsbL-0350_RLatLon0.09_PT063H.grib2 2026-04-25 03:03 230K
20260425T00Z_MSC_RDPS_GeopotentialHeight_IsbL-0400_RLatLon0.09_PT063H.grib2 2026-04-25 03:03 226K
20260425T00Z_MSC_RDPS_GeopotentialHeight_IsbL-0450_RLatLon0.09_PT063H.grib2 2026-04-25 03:03 294K
20260425T00Z_MSC_RDPS_GeopotentialHeight_IsbL-0500_RLatLon0.09_PT063H.grib2 2026-04-25 03:03 289K
20260425T00Z_MSC_RDPS_GeopotentialHeight_IsbL-0550_RLatLon0.09_PT063H.grib2 2026-04-25 03:03 285K
20260425T00Z_MSC_RDPS_GeopotentialHeight_IsbL-0600_RLatLon0.09_PT063H.grib2 2026-04-25 03:03 281K
20260425T00Z_MSC_RDPS_GeopotentialHeight_IsbL-0650_RLatLon0.09_PT063H.grib2 2026-04-25 03:03 280K
20260425T00Z_MSC_RDPS_GeopotentialHeight_IsbL-0700_RLatLon0.09_PT063H.grib2 2026-04-25 03:03 280K
20260425T00Z_MSC_RDPS_GeopotentialHeight_IsbL-0750_RLatLon0.09_PT063H.grib2 2026-04-25 03:03 253K
20260425T00Z_MSC_RDPS_GeopotentialHeight_IsbL-0800_RLatLon0.09_PT063H.grib2 2026-04-25 03:03 260K
20260425T00Z_MSC_RDPS_GeopotentialHeight_IsbL-0850_RLatLon0.09_PT063H.grib2 2026-04-25 03:03 269K
20260425T00Z_MSC_RDPS_GeopotentialHeight_IsbL-0875_RLatLon0.09_PT063H.grib2 2026-04-25 03:03 272K
20260425T00Z_MSC_RDPS_GeopotentialHeight_IsbL-0900_RLatLon0.09_PT063H.grib2 2026-04-25 03:03 276K
20260425T00Z_MSC_RDPS_GeopotentialHeight_IsbL-0925_RLatLon0.09_PT063H.grib2 2026-04-25 03:03 279K
20260425T00Z_MSC_RDPS_GeopotentialHeight_IsbL-0950_RLatLon0.09_PT063H.grib2 2026-04-25 03:03 282K
20260425T00Z_MSC_RDPS_GeopotentialHeight_IsbL-0970_RLatLon0.09_PT063H.grib2 2026-04-25 03:03 287K
20260425T00Z_MSC_RDPS_GeopotentialHeight_IsbL-0985_RLatLon0.09_PT063H.grib2 2026-04-25 03:03 295K
20260425T00Z_MSC_RDPS_GeopotentialHeight_IsbL-1000_RLatLon0.09_PT063H.grib2 2026-04-25 03:03 306K
20260425T00Z_MSC_RDPS_GeopotentialHeight_IsbL-1015_RLatLon0.09_PT063H.grib2 2026-04-25 03:03 319K
20260425T00Z_MSC_RDPS_Humidex_Sfc_RLatLon0.09_PT063H.grib2 2026-04-25 03:03 2.4M
20260425T00Z_MSC_RDPS_IcePellets-Accum1h_Sfc_RLatLon0.09_PT063H.grib2 2026-04-25 03:03 7.3K
20260425T00Z_MSC_RDPS_IcePellets-Accum3h_Sfc_RLatLon0.09_PT063H.grib2 2026-04-25 03:03 8.6K
20260425T00Z_MSC_RDPS_IcePellets-Accum_Sfc_RLatLon0.09_PT063H.grib2 2026-04-25 03:03 50K
20260425T00Z_MSC_RDPS_KIndex_Sfc_RLatLon0.09_PT063H.grib2 2026-04-25 03:03 2.4M
20260425T00Z_MSC_RDPS_LatentHeatNetFlux_Sfc_RLatLon0.09_PT063H.grib2 2026-04-25 03:03 382K
20260425T00Z_MSC_RDPS_LiftedIndex-MU-VT_IsbL-0500_RLatLon0.09_PT063H.grib2 2026-04-25 03:03 2.4M
20260425T00Z_MSC_RDPS_NetLongwaveRadiationFlux-Accum_Sfc_RLatLon0.09_PT063H.grib2 2026-04-25 03:03 593K
20260425T00Z_MSC_RDPS_NetShortwaveRadiationFlux-Accum_Sfc_RLatLon0.09_PT063H.grib2 2026-04-25 03:03 594K
20260425T00Z_MSC_RDPS_PlanetaryBoundaryLayerHeight_Sfc_RLatLon0.09_PT063H.grib2 2026-04-25 03:03 1.2M
20260425T00Z_MSC_RDPS_Precip-Accum1h_Sfc_RLatLon0.09_PT063H.grib2 2026-04-25 03:03 1.3M
20260425T00Z_MSC_RDPS_Precip-Accum3h_Sfc_RLatLon0.09_PT063H.grib2 2026-04-25 03:03 1.5M
20260425T00Z_MSC_RDPS_Precip-Accum_Sfc_RLatLon0.09_PT063H.grib2 2026-04-25 03:03 2.2M
20260425T00Z_MSC_RDPS_PrecipRate_Sfc_RLatLon0.09_PT063H.grib2 2026-04-25 03:03 174K
20260425T00Z_MSC_RDPS_PrecipType-Instant_Sfc_RLatLon0.09_PT063H.grib2 2026-04-25 03:03 588K
20260425T00Z_MSC_RDPS_Pressure-Trend3h_Sfc_RLatLon0.09_PT063H.grib2 2026-04-25 03:03 1.2M
20260425T00Z_MSC_RDPS_Pressure_MSL_RLatLon0.09_PT063H.grib2 2026-04-25 03:03 330K
20260425T00Z_MSC_RDPS_Pressure_PVU-1.5_RLatLon0.09_PT063H.grib2 2026-04-25 03:03 2.3M
20260425T00Z_MSC_RDPS_Pressure_PVU-1_RLatLon0.09_PT063H.grib2 2026-04-25 03:03 2.4M
20260425T00Z_MSC_RDPS_Pressure_PVU-2_RLatLon0.09_PT063H.grib2 2026-04-25 03:03 2.4M
20260425T00Z_MSC_RDPS_Pressure_Sfc_RLatLon0.09_PT063H.grib2 2026-04-25 03:03 501K
20260425T00Z_MSC_RDPS_RadiativeTemp_Sfc_RLatLon0.09_PT063H.grib2 2026-04-25 03:03 321K
20260425T00Z_MSC_RDPS_Rain-Accum1h_Sfc_RLatLon0.09_PT063H.grib2 2026-04-25 03:03 601K
20260425T00Z_MSC_RDPS_Rain-Accum3h_Sfc_RLatLon0.09_PT063H.grib2 2026-04-25 03:03 742K
20260425T00Z_MSC_RDPS_Rain-Accum_Sfc_RLatLon0.09_PT063H.grib2 2026-04-25 03:03 1.7M
20260425T00Z_MSC_RDPS_RelativeHumidity_AGL-2m_RLatLon0.09_PT063H.grib2 2026-04-25 03:03 1.0M
20260425T00Z_MSC_RDPS_RelativeHumidity_IsbL-0010_RLatLon0.09_PT063H.grib2 2026-04-25 03:03 626K
20260425T00Z_MSC_RDPS_RelativeHumidity_IsbL-0020_RLatLon0.09_PT063H.grib2 2026-04-25 03:03 651K
20260425T00Z_MSC_RDPS_RelativeHumidity_IsbL-0030_RLatLon0.09_PT063H.grib2 2026-04-25 03:03 540K
20260425T00Z_MSC_RDPS_RelativeHumidity_IsbL-0050_RLatLon0.09_PT063H.grib2 2026-04-25 03:03 325K
20260425T00Z_MSC_RDPS_RelativeHumidity_IsbL-0100_RLatLon0.09_PT063H.grib2 2026-04-25 03:03 269K
20260425T00Z_MSC_RDPS_RelativeHumidity_IsbL-0150_RLatLon0.09_PT063H.grib2 2026-04-25 03:03 391K
20260425T00Z_MSC_RDPS_RelativeHumidity_IsbL-0175_RLatLon0.09_PT063H.grib2 2026-04-25 03:03 469K
20260425T00Z_MSC_RDPS_RelativeHumidity_IsbL-0200_RLatLon0.09_PT063H.grib2 2026-04-25 03:03 548K
20260425T00Z_MSC_RDPS_RelativeHumidity_IsbL-0225_RLatLon0.09_PT063H.grib2 2026-04-25 03:03 612K
20260425T00Z_MSC_RDPS_RelativeHumidity_IsbL-0250_RLatLon0.09_PT063H.grib2 2026-04-25 03:03 681K
20260425T00Z_MSC_RDPS_RelativeHumidity_IsbL-0275_RLatLon0.09_PT063H.grib2 2026-04-25 03:03 709K
20260425T00Z_MSC_RDPS_RelativeHumidity_IsbL-0300_RLatLon0.09_PT063H.grib2 2026-04-25 03:03 753K
20260425T00Z_MSC_RDPS_RelativeHumidity_IsbL-0350_RLatLon0.09_PT063H.grib2 2026-04-25 03:03 774K
20260425T00Z_MSC_RDPS_RelativeHumidity_IsbL-0400_RLatLon0.09_PT063H.grib2 2026-04-25 03:03 794K
20260425T00Z_MSC_RDPS_RelativeHumidity_IsbL-0450_RLatLon0.09_PT063H.grib2 2026-04-25 03:03 809K
20260425T00Z_MSC_RDPS_RelativeHumidity_IsbL-0500_RLatLon0.09_PT063H.grib2 2026-04-25 03:03 819K
20260425T00Z_MSC_RDPS_RelativeHumidity_IsbL-0550_RLatLon0.09_PT063H.grib2 2026-04-25 03:03 834K
20260425T00Z_MSC_RDPS_RelativeHumidity_IsbL-0600_RLatLon0.09_PT063H.grib2 2026-04-25 03:03 849K
20260425T00Z_MSC_RDPS_RelativeHumidity_IsbL-0650_RLatLon0.09_PT063H.grib2 2026-04-25 03:03 863K
20260425T00Z_MSC_RDPS_RelativeHumidity_IsbL-0700_RLatLon0.09_PT063H.grib2 2026-04-25 03:03 896K
20260425T00Z_MSC_RDPS_RelativeHumidity_IsbL-0750_RLatLon0.09_PT063H.grib2 2026-04-25 03:03 942K
20260425T00Z_MSC_RDPS_RelativeHumidity_IsbL-0800_RLatLon0.09_PT063H.grib2 2026-04-25 03:03 1.0M
20260425T00Z_MSC_RDPS_RelativeHumidity_IsbL-0850_RLatLon0.09_PT063H.grib2 2026-04-25 03:03 1.1M
20260425T00Z_MSC_RDPS_RelativeHumidity_IsbL-0875_RLatLon0.09_PT063H.grib2 2026-04-25 03:03 1.1M
20260425T00Z_MSC_RDPS_RelativeHumidity_IsbL-0900_RLatLon0.09_PT063H.grib2 2026-04-25 03:03 1.1M
20260425T00Z_MSC_RDPS_RelativeHumidity_IsbL-0925_RLatLon0.09_PT063H.grib2 2026-04-25 03:03 1.1M
20260425T00Z_MSC_RDPS_RelativeHumidity_IsbL-0950_RLatLon0.09_PT063H.grib2 2026-04-25 03:03 1.1M
20260425T00Z_MSC_RDPS_RelativeHumidity_IsbL-0970_RLatLon0.09_PT063H.grib2 2026-04-25 03:03 1.1M
20260425T00Z_MSC_RDPS_RelativeHumidity_IsbL-0985_RLatLon0.09_PT063H.grib2 2026-04-25 03:03 1.1M
20260425T00Z_MSC_RDPS_RelativeHumidity_IsbL-1000_RLatLon0.09_PT063H.grib2 2026-04-25 03:03 1.0M
20260425T00Z_MSC_RDPS_RelativeHumidity_IsbL-1015_RLatLon0.09_PT063H.grib2 2026-04-25 03:03 1.0M
20260425T00Z_MSC_RDPS_Runoff-Accum_Sfc_RLatLon0.09_PT063H.grib2 2026-04-25 03:03 74K
20260425T00Z_MSC_RDPS_SWEATIndex_Sfc_RLatLon0.09_PT063H.grib2 2026-04-25 03:03 2.4M
20260425T00Z_MSC_RDPS_SeeingIndex_EAtm_RLatLon0.09_PT063H.grib2 2026-04-25 03:03 1.0M
20260425T00Z_MSC_RDPS_SensibleHeatNetFlux_Sfc_RLatLon0.09_PT063H.grib2 2026-04-25 03:03 361K
20260425T00Z_MSC_RDPS_ShowalterIndex_IsbL-0500_RLatLon0.09_PT063H.grib2 2026-04-25 03:03 2.6M
20260425T00Z_MSC_RDPS_SkyTransparencyIndex_EAtm_RLatLon0.09_PT063H.grib2 2026-04-25 03:03 734K
20260425T00Z_MSC_RDPS_Snow-Accum1h_Sfc_RLatLon0.09_PT063H.grib2 2026-04-25 03:03 512K
20260425T00Z_MSC_RDPS_Snow-Accum3h_Sfc_RLatLon0.09_PT063H.grib2 2026-04-25 03:03 430K
20260425T00Z_MSC_RDPS_Snow-Accum_Sfc_RLatLon0.09_PT063H.grib2 2026-04-25 03:03 877K
20260425T00Z_MSC_RDPS_SnowDensity_Sfc_RLatLon0.09_PT063H.grib2 2026-04-25 03:03 186K
20260425T00Z_MSC_RDPS_SnowDepth_Sfc_RLatLon0.09_PT063H.grib2 2026-04-25 03:03 737K
20260425T00Z_MSC_RDPS_SoilTemp_DBS-0to10cm_RLatLon0.09_PT063H.grib2 2026-04-25 03:03 238K
20260425T00Z_MSC_RDPS_SoilTemp_Sfc_RLatLon0.09_PT063H.grib2 2026-04-25 03:03 284K
20260425T00Z_MSC_RDPS_SoilVolumetricIceContent_Sfc_RLatLon0.09_PT063H.grib2 2026-04-25 03:03 170K
20260425T00Z_MSC_RDPS_SoilVolumetricWaterContent_DBS-0to10cm_RLatLon0.09_PT063H.grib2 2026-04-25 03:03 259K
20260425T00Z_MSC_RDPS_SoilVolumetricWaterContent_DBS-0to1cm_RLatLon0.09_PT063H.grib2 2026-04-25 03:03 344K
20260425T00Z_MSC_RDPS_SpecificHumidity_AGL-120m_RLatLon0.09_PT063H.grib2 2026-04-25 03:03 497K
20260425T00Z_MSC_RDPS_SpecificHumidity_AGL-2m_RLatLon0.09_PT063H.grib2 2026-04-25 03:03 668K
20260425T00Z_MSC_RDPS_SpecificHumidity_AGL-40m_RLatLon0.09_PT063H.grib2 2026-04-25 03:03 503K
20260425T00Z_MSC_RDPS_SpecificHumidity_AGL-80m_RLatLon0.09_PT063H.grib2 2026-04-25 03:03 500K
20260425T00Z_MSC_RDPS_SpecificHumidity_IsbL-0001_RLatLon0.09_PT063H.grib2 2026-04-25 03:03 348K
20260425T00Z_MSC_RDPS_SpecificHumidity_IsbL-0005_RLatLon0.09_PT063H.grib2 2026-04-25 03:03 452K
20260425T00Z_MSC_RDPS_SpecificHumidity_IsbL-0010_RLatLon0.09_PT063H.grib2 2026-04-25 03:03 391K
20260425T00Z_MSC_RDPS_SpecificHumidity_IsbL-0020_RLatLon0.09_PT063H.grib2 2026-04-25 03:03 492K
20260425T00Z_MSC_RDPS_SpecificHumidity_IsbL-0030_RLatLon0.09_PT063H.grib2 2026-04-25 03:03 469K
20260425T00Z_MSC_RDPS_SpecificHumidity_IsbL-0050_RLatLon0.09_PT063H.grib2 2026-04-25 03:03 461K
20260425T00Z_MSC_RDPS_SpecificHumidity_IsbL-0100_RLatLon0.09_PT063H.grib2 2026-04-25 03:03 414K
20260425T00Z_MSC_RDPS_SpecificHumidity_IsbL-0150_RLatLon0.09_PT063H.grib2 2026-04-25 03:03 435K
20260425T00Z_MSC_RDPS_SpecificHumidity_IsbL-0175_RLatLon0.09_PT063H.grib2 2026-04-25 03:03 451K
20260425T00Z_MSC_RDPS_SpecificHumidity_IsbL-0200_RLatLon0.09_PT063H.grib2 2026-04-25 03:03 447K
20260425T00Z_MSC_RDPS_SpecificHumidity_IsbL-0225_RLatLon0.09_PT063H.grib2 2026-04-25 03:03 444K
20260425T00Z_MSC_RDPS_SpecificHumidity_IsbL-0250_RLatLon0.09_PT063H.grib2 2026-04-25 03:03 547K
20260425T00Z_MSC_RDPS_SpecificHumidity_IsbL-0275_RLatLon0.09_PT063H.grib2 2026-04-25 03:03 462K
20260425T00Z_MSC_RDPS_SpecificHumidity_IsbL-0300_RLatLon0.09_PT063H.grib2 2026-04-25 03:03 531K
20260425T00Z_MSC_RDPS_SpecificHumidity_IsbL-0350_RLatLon0.09_PT063H.grib2 2026-04-25 03:03 521K
20260425T00Z_MSC_RDPS_SpecificHumidity_IsbL-0400_RLatLon0.09_PT063H.grib2 2026-04-25 03:03 509K
20260425T00Z_MSC_RDPS_SpecificHumidity_IsbL-0450_RLatLon0.09_PT063H.grib2 2026-04-25 03:03 609K
20260425T00Z_MSC_RDPS_SpecificHumidity_IsbL-0500_RLatLon0.09_PT063H.grib2 2026-04-25 03:03 509K
20260425T00Z_MSC_RDPS_SpecificHumidity_IsbL-0550_RLatLon0.09_PT063H.grib2 2026-04-25 03:03 562K
20260425T00Z_MSC_RDPS_SpecificHumidity_IsbL-0600_RLatLon0.09_PT063H.grib2 2026-04-25 03:03 627K
20260425T00Z_MSC_RDPS_SpecificHumidity_IsbL-0650_RLatLon0.09_PT063H.grib2 2026-04-25 03:03 545K
20260425T00Z_MSC_RDPS_SpecificHumidity_IsbL-0700_RLatLon0.09_PT063H.grib2 2026-04-25 03:03 591K
20260425T00Z_MSC_RDPS_SpecificHumidity_IsbL-0750_RLatLon0.09_PT063H.grib2 2026-04-25 03:03 651K
20260425T00Z_MSC_RDPS_SpecificHumidity_IsbL-0800_RLatLon0.09_PT063H.grib2 2026-04-25 03:03 727K
20260425T00Z_MSC_RDPS_SpecificHumidity_IsbL-0850_RLatLon0.09_PT063H.grib2 2026-04-25 03:03 809K
20260425T00Z_MSC_RDPS_SpecificHumidity_IsbL-0875_RLatLon0.09_PT063H.grib2 2026-04-25 03:03 831K
20260425T00Z_MSC_RDPS_SpecificHumidity_IsbL-0900_RLatLon0.09_PT063H.grib2 2026-04-25 03:03 841K
20260425T00Z_MSC_RDPS_SpecificHumidity_IsbL-0925_RLatLon0.09_PT063H.grib2 2026-04-25 03:03 844K
20260425T00Z_MSC_RDPS_SpecificHumidity_IsbL-0950_RLatLon0.09_PT063H.grib2 2026-04-25 03:03 842K
20260425T00Z_MSC_RDPS_SpecificHumidity_IsbL-0970_RLatLon0.09_PT063H.grib2 2026-04-25 03:03 695K
20260425T00Z_MSC_RDPS_SpecificHumidity_IsbL-0985_RLatLon0.09_PT063H.grib2 2026-04-25 03:03 691K
20260425T00Z_MSC_RDPS_SpecificHumidity_IsbL-1000_RLatLon0.09_PT063H.grib2 2026-04-25 03:03 687K
20260425T00Z_MSC_RDPS_SpecificHumidity_IsbL-1015_RLatLon0.09_PT063H.grib2 2026-04-25 03:03 678K
20260425T00Z_MSC_RDPS_SpecificHumidity_Sfc_RLatLon0.09_PT063H.grib2 2026-04-25 03:03 315K
20260425T00Z_MSC_RDPS_StormRelativeHelicity_EtaL-10000_RLatLon0.09_PT063H.grib2 2026-04-25 03:03 1.1M
20260425T00Z_MSC_RDPS_StormSeverityIndex_EtaL-10000_RLatLon0.09_PT063H.grib2 2026-04-25 03:03 1.1M
20260425T00Z_MSC_RDPS_Thickness_IsbL-0850to0700_RLatLon0.09_PT063H.grib2 2026-04-25 03:03 175K
20260425T00Z_MSC_RDPS_Thickness_IsbL-1000to0500_RLatLon0.09_PT063H.grib2 2026-04-25 03:03 200K
20260425T00Z_MSC_RDPS_Thickness_IsbL-1000to0850_RLatLon0.09_PT063H.grib2 2026-04-25 03:03 188K
20260425T00Z_MSC_RDPS_TotalCloudCover_Sfc_RLatLon0.09_PT063H.grib2 2026-04-25 03:03 673K
20260425T00Z_MSC_RDPS_TotalTotalsIndex_Sfc_RLatLon0.09_PT063H.grib2 2026-04-25 03:03 2.4M
20260425T00Z_MSC_RDPS_UVIndex-ClearSky_Sfc_RLatLon0.09_PT063H.grib2 2026-04-25 03:03 181K
20260425T00Z_MSC_RDPS_UVIndex_Sfc_RLatLon0.09_PT063H.grib2 2026-04-25 03:03 420K
20260425T00Z_MSC_RDPS_UpwardLongwaveRadiationFlux_NTAtm_RLatLon0.09_PT063H.grib2 2026-04-25 03:03 491K
20260425T00Z_MSC_RDPS_UpwardShortwaveRadiationFlux_NTAtm_RLatLon0.09_PT063H.grib2 2026-04-25 03:03 472K
20260425T00Z_MSC_RDPS_VerticalVelocity_IsbL-0250_RLatLon0.09_PT063H.grib2 2026-04-25 03:03 538K
20260425T00Z_MSC_RDPS_VerticalVelocity_IsbL-0500_RLatLon0.09_PT063H.grib2 2026-04-25 03:03 535K
20260425T00Z_MSC_RDPS_VerticalVelocity_IsbL-0700_RLatLon0.09_PT063H.grib2 2026-04-25 03:03 585K
20260425T00Z_MSC_RDPS_VerticalVelocity_IsbL-0850_RLatLon0.09_PT063H.grib2 2026-04-25 03:03 694K
20260425T00Z_MSC_RDPS_VerticalWindShear_EtaL-6500_RLatLon0.09_PT063H.grib2 2026-04-25 03:03 1.2M
20260425T00Z_MSC_RDPS_WindChill_Sfc_RLatLon0.09_PT063H.grib2 2026-04-25 03:03 1.1M
20260425T00Z_MSC_RDPS_WindDir_AGL-10m_RLatLon0.09_PT063H.grib2 2026-04-25 03:03 1.0M
20260425T00Z_MSC_RDPS_WindDir_AGL-120m_RLatLon0.09_PT063H.grib2 2026-04-25 03:03 630K
20260425T00Z_MSC_RDPS_WindDir_AGL-40m_RLatLon0.09_PT063H.grib2 2026-04-25 03:03 654K
20260425T00Z_MSC_RDPS_WindDir_AGL-80m_RLatLon0.09_PT063H.grib2 2026-04-25 03:03 640K
20260425T00Z_MSC_RDPS_WindDir_IsbL-0001_RLatLon0.09_PT063H.grib2 2026-04-25 03:03 292K
20260425T00Z_MSC_RDPS_WindDir_IsbL-0005_RLatLon0.09_PT063H.grib2 2026-04-25 03:03 345K
20260425T00Z_MSC_RDPS_WindDir_IsbL-0010_RLatLon0.09_PT063H.grib2 2026-04-25 03:03 378K
20260425T00Z_MSC_RDPS_WindDir_IsbL-0020_RLatLon0.09_PT063H.grib2 2026-04-25 03:03 407K
20260425T00Z_MSC_RDPS_WindDir_IsbL-0030_RLatLon0.09_PT063H.grib2 2026-04-25 03:03 419K
20260425T00Z_MSC_RDPS_WindDir_IsbL-0050_RLatLon0.09_PT063H.grib2 2026-04-25 03:03 422K
20260425T00Z_MSC_RDPS_WindDir_IsbL-0100_RLatLon0.09_PT063H.grib2 2026-04-25 03:03 401K
20260425T00Z_MSC_RDPS_WindDir_IsbL-0150_RLatLon0.09_PT063H.grib2 2026-04-25 03:03 398K
20260425T00Z_MSC_RDPS_WindDir_IsbL-0175_RLatLon0.09_PT063H.grib2 2026-04-25 03:03 421K
20260425T00Z_MSC_RDPS_WindDir_IsbL-0200_RLatLon0.09_PT063H.grib2 2026-04-25 03:03 436K
20260425T00Z_MSC_RDPS_WindDir_IsbL-0225_RLatLon0.09_PT063H.grib2 2026-04-25 03:03 446K
20260425T00Z_MSC_RDPS_WindDir_IsbL-0250_RLatLon0.09_PT063H.grib2 2026-04-25 03:03 448K
20260425T00Z_MSC_RDPS_WindDir_IsbL-0275_RLatLon0.09_PT063H.grib2 2026-04-25 03:03 472K
20260425T00Z_MSC_RDPS_WindDir_IsbL-0300_RLatLon0.09_PT063H.grib2 2026-04-25 03:03 473K
20260425T00Z_MSC_RDPS_WindDir_IsbL-0350_RLatLon0.09_PT063H.grib2 2026-04-25 03:03 492K
20260425T00Z_MSC_RDPS_WindDir_IsbL-0400_RLatLon0.09_PT063H.grib2 2026-04-25 03:03 513K
20260425T00Z_MSC_RDPS_WindDir_IsbL-0450_RLatLon0.09_PT063H.grib2 2026-04-25 03:03 524K
20260425T00Z_MSC_RDPS_WindDir_IsbL-0500_RLatLon0.09_PT063H.grib2 2026-04-25 03:03 536K
20260425T00Z_MSC_RDPS_WindDir_IsbL-0550_RLatLon0.09_PT063H.grib2 2026-04-25 03:03 550K
20260425T00Z_MSC_RDPS_WindDir_IsbL-0600_RLatLon0.09_PT063H.grib2 2026-04-25 03:03 577K
20260425T00Z_MSC_RDPS_WindDir_IsbL-0650_RLatLon0.09_PT063H.grib2 2026-04-25 03:03 623K
20260425T00Z_MSC_RDPS_WindDir_IsbL-0700_RLatLon0.09_PT063H.grib2 2026-04-25 03:03 665K
20260425T00Z_MSC_RDPS_WindDir_IsbL-0750_RLatLon0.09_PT063H.grib2 2026-04-25 03:03 716K
20260425T00Z_MSC_RDPS_WindDir_IsbL-0800_RLatLon0.09_PT063H.grib2 2026-04-25 03:03 789K
20260425T00Z_MSC_RDPS_WindDir_IsbL-0850_RLatLon0.09_PT063H.grib2 2026-04-25 03:03 862K
20260425T00Z_MSC_RDPS_WindDir_IsbL-0875_RLatLon0.09_PT063H.grib2 2026-04-25 03:03 890K
20260425T00Z_MSC_RDPS_WindDir_IsbL-0900_RLatLon0.09_PT063H.grib2 2026-04-25 03:03 910K
20260425T00Z_MSC_RDPS_WindDir_IsbL-0925_RLatLon0.09_PT063H.grib2 2026-04-25 03:03 924K
20260425T00Z_MSC_RDPS_WindDir_IsbL-0950_RLatLon0.09_PT063H.grib2 2026-04-25 03:03 928K
20260425T00Z_MSC_RDPS_WindDir_IsbL-0970_RLatLon0.09_PT063H.grib2 2026-04-25 03:03 932K
20260425T00Z_MSC_RDPS_WindDir_IsbL-0985_RLatLon0.09_PT063H.grib2 2026-04-25 03:03 945K
20260425T00Z_MSC_RDPS_WindDir_IsbL-1000_RLatLon0.09_PT063H.grib2 2026-04-25 03:03 962K
20260425T00Z_MSC_RDPS_WindDir_IsbL-1015_RLatLon0.09_PT063H.grib2 2026-04-25 03:03 1.0M
20260425T00Z_MSC_RDPS_WindGust-Max_AGL-10m_RLatLon0.09_PT063H.grib2 2026-04-25 03:03 960K
20260425T00Z_MSC_RDPS_WindGust-Min_AGL-10m_RLatLon0.09_PT063H.grib2 2026-04-25 03:03 937K
20260425T00Z_MSC_RDPS_WindGust_AGL-10m_RLatLon0.09_PT063H.grib2 2026-04-25 03:03 950K
20260425T00Z_MSC_RDPS_WindSpeed_AGL-10m_RLatLon0.09_PT063H.grib2 2026-04-25 03:03 856K
20260425T00Z_MSC_RDPS_WindSpeed_AGL-120m_RLatLon0.09_PT063H.grib2 2026-04-25 03:03 558K
20260425T00Z_MSC_RDPS_WindSpeed_AGL-40m_RLatLon0.09_PT063H.grib2 2026-04-25 03:03 560K
20260425T00Z_MSC_RDPS_WindSpeed_AGL-80m_RLatLon0.09_PT063H.grib2 2026-04-25 03:03 558K
20260425T00Z_MSC_RDPS_WindSpeed_IsbL-0001_RLatLon0.09_PT063H.grib2 2026-04-25 03:03 253K
20260425T00Z_MSC_RDPS_WindSpeed_IsbL-0005_RLatLon0.09_PT063H.grib2 2026-04-25 03:03 297K
20260425T00Z_MSC_RDPS_WindSpeed_IsbL-0010_RLatLon0.09_PT063H.grib2 2026-04-25 03:03 311K
20260425T00Z_MSC_RDPS_WindSpeed_IsbL-0020_RLatLon0.09_PT063H.grib2 2026-04-25 03:03 326K
20260425T00Z_MSC_RDPS_WindSpeed_IsbL-0030_RLatLon0.09_PT063H.grib2 2026-04-25 03:03 324K
20260425T00Z_MSC_RDPS_WindSpeed_IsbL-0050_RLatLon0.09_PT063H.grib2 2026-04-25 03:03 356K
20260425T00Z_MSC_RDPS_WindSpeed_IsbL-0100_RLatLon0.09_PT063H.grib2 2026-04-25 03:03 470K
20260425T00Z_MSC_RDPS_WindSpeed_IsbL-0150_RLatLon0.09_PT063H.grib2 2026-04-25 03:03 367K
20260425T00Z_MSC_RDPS_WindSpeed_IsbL-0175_RLatLon0.09_PT063H.grib2 2026-04-25 03:03 395K
20260425T00Z_MSC_RDPS_WindSpeed_IsbL-0200_RLatLon0.09_PT063H.grib2 2026-04-25 03:03 434K
20260425T00Z_MSC_RDPS_WindSpeed_IsbL-0225_RLatLon0.09_PT063H.grib2 2026-04-25 03:03 442K
20260425T00Z_MSC_RDPS_WindSpeed_IsbL-0250_RLatLon0.09_PT063H.grib2 2026-04-25 03:03 444K
20260425T00Z_MSC_RDPS_WindSpeed_IsbL-0275_RLatLon0.09_PT063H.grib2 2026-04-25 03:03 461K
20260425T00Z_MSC_RDPS_WindSpeed_IsbL-0300_RLatLon0.09_PT063H.grib2 2026-04-25 03:03 460K
20260425T00Z_MSC_RDPS_WindSpeed_IsbL-0350_RLatLon0.09_PT063H.grib2 2026-04-25 03:03 472K
20260425T00Z_MSC_RDPS_WindSpeed_IsbL-0400_RLatLon0.09_PT063H.grib2 2026-04-25 03:03 459K
20260425T00Z_MSC_RDPS_WindSpeed_IsbL-0450_RLatLon0.09_PT063H.grib2 2026-04-25 03:03 457K
20260425T00Z_MSC_RDPS_WindSpeed_IsbL-0500_RLatLon0.09_PT063H.grib2 2026-04-25 03:03 572K
20260425T00Z_MSC_RDPS_WindSpeed_IsbL-0550_RLatLon0.09_PT063H.grib2 2026-04-25 03:03 571K
20260425T00Z_MSC_RDPS_WindSpeed_IsbL-0600_RLatLon0.09_PT063H.grib2 2026-04-25 03:03 581K
20260425T00Z_MSC_RDPS_WindSpeed_IsbL-0650_RLatLon0.09_PT063H.grib2 2026-04-25 03:03 647K
20260425T00Z_MSC_RDPS_WindSpeed_IsbL-0700_RLatLon0.09_PT063H.grib2 2026-04-25 03:03 671K
20260425T00Z_MSC_RDPS_WindSpeed_IsbL-0750_RLatLon0.09_PT063H.grib2 2026-04-25 03:03 702K
20260425T00Z_MSC_RDPS_WindSpeed_IsbL-0800_RLatLon0.09_PT063H.grib2 2026-04-25 03:03 757K
20260425T00Z_MSC_RDPS_WindSpeed_IsbL-0850_RLatLon0.09_PT063H.grib2 2026-04-25 03:03 771K
20260425T00Z_MSC_RDPS_WindSpeed_IsbL-0875_RLatLon0.09_PT063H.grib2 2026-04-25 03:03 794K
20260425T00Z_MSC_RDPS_WindSpeed_IsbL-0900_RLatLon0.09_PT063H.grib2 2026-04-25 03:03 811K
20260425T00Z_MSC_RDPS_WindSpeed_IsbL-0925_RLatLon0.09_PT063H.grib2 2026-04-25 03:03 868K
20260425T00Z_MSC_RDPS_WindSpeed_IsbL-0950_RLatLon0.09_PT063H.grib2 2026-04-25 03:03 868K
20260425T00Z_MSC_RDPS_WindSpeed_IsbL-0970_RLatLon0.09_PT063H.grib2 2026-04-25 03:03 864K
20260425T00Z_MSC_RDPS_WindSpeed_IsbL-0985_RLatLon0.09_PT063H.grib2 2026-04-25 03:03 864K
20260425T00Z_MSC_RDPS_WindSpeed_IsbL-1000_RLatLon0.09_PT063H.grib2 2026-04-25 03:03 860K
20260425T00Z_MSC_RDPS_WindSpeed_IsbL-1015_RLatLon0.09_PT063H.grib2 2026-04-25 03:03 853K
20260425T00Z_MSC_RDPS_WindU_AGL-10m_RLatLon0.09_PT063H.grib2 2026-04-25 03:03 392K
20260425T00Z_MSC_RDPS_WindU_AGL-120m_RLatLon0.09_PT063H.grib2 2026-04-25 03:03 424K
20260425T00Z_MSC_RDPS_WindU_AGL-40m_RLatLon0.09_PT063H.grib2 2026-04-25 03:03 427K
20260425T00Z_MSC_RDPS_WindU_AGL-80m_RLatLon0.09_PT063H.grib2 2026-04-25 03:03 425K
20260425T00Z_MSC_RDPS_WindU_IsbL-0001_RLatLon0.09_PT063H.grib2 2026-04-25 03:03 294K
20260425T00Z_MSC_RDPS_WindU_IsbL-0005_RLatLon0.09_PT063H.grib2 2026-04-25 03:03 333K
20260425T00Z_MSC_RDPS_WindU_IsbL-0010_RLatLon0.09_PT063H.grib2 2026-04-25 03:03 343K
20260425T00Z_MSC_RDPS_WindU_IsbL-0020_RLatLon0.09_PT063H.grib2 2026-04-25 03:03 357K
20260425T00Z_MSC_RDPS_WindU_IsbL-0030_RLatLon0.09_PT063H.grib2 2026-04-25 03:03 355K
20260425T00Z_MSC_RDPS_WindU_IsbL-0050_RLatLon0.09_PT063H.grib2 2026-04-25 03:03 383K
20260425T00Z_MSC_RDPS_WindU_IsbL-0100_RLatLon0.09_PT063H.grib2 2026-04-25 03:03 428K
20260425T00Z_MSC_RDPS_WindU_IsbL-0150_RLatLon0.09_PT063H.grib2 2026-04-25 03:03 384K
20260425T00Z_MSC_RDPS_WindU_IsbL-0175_RLatLon0.09_PT063H.grib2 2026-04-25 03:03 410K
20260425T00Z_MSC_RDPS_WindU_IsbL-0200_RLatLon0.09_PT063H.grib2 2026-04-25 03:03 329K
20260425T00Z_MSC_RDPS_WindU_IsbL-0225_RLatLon0.09_PT063H.grib2 2026-04-25 03:03 336K
20260425T00Z_MSC_RDPS_WindU_IsbL-0250_RLatLon0.09_PT063H.grib2 2026-04-25 03:03 337K
20260425T00Z_MSC_RDPS_WindU_IsbL-0275_RLatLon0.09_PT063H.grib2 2026-04-25 03:03 350K
20260425T00Z_MSC_RDPS_WindU_IsbL-0300_RLatLon0.09_PT063H.grib2 2026-04-25 03:03 348K
20260425T00Z_MSC_RDPS_WindU_IsbL-0350_RLatLon0.09_PT063H.grib2 2026-04-25 03:03 357K
20260425T00Z_MSC_RDPS_WindU_IsbL-0400_RLatLon0.09_PT063H.grib2 2026-04-25 03:03 361K
20260425T00Z_MSC_RDPS_WindU_IsbL-0450_RLatLon0.09_PT063H.grib2 2026-04-25 03:03 463K
20260425T00Z_MSC_RDPS_WindU_IsbL-0500_RLatLon0.09_PT063H.grib2 2026-04-25 03:03 462K
20260425T00Z_MSC_RDPS_WindU_IsbL-0550_RLatLon0.09_PT063H.grib2 2026-04-25 03:03 463K
20260425T00Z_MSC_RDPS_WindU_IsbL-0600_RLatLon0.09_PT063H.grib2 2026-04-25 03:03 471K
20260425T00Z_MSC_RDPS_WindU_IsbL-0650_RLatLon0.09_PT063H.grib2 2026-04-25 03:03 491K
20260425T00Z_MSC_RDPS_WindU_IsbL-0700_RLatLon0.09_PT063H.grib2 2026-04-25 03:03 511K
20260425T00Z_MSC_RDPS_WindU_IsbL-0750_RLatLon0.09_PT063H.grib2 2026-04-25 03:03 537K
20260425T00Z_MSC_RDPS_WindU_IsbL-0800_RLatLon0.09_PT063H.grib2 2026-04-25 03:03 583K
20260425T00Z_MSC_RDPS_WindU_IsbL-0850_RLatLon0.09_PT063H.grib2 2026-04-25 03:03 634K
20260425T00Z_MSC_RDPS_WindU_IsbL-0875_RLatLon0.09_PT063H.grib2 2026-04-25 03:03 652K
20260425T00Z_MSC_RDPS_WindU_IsbL-0900_RLatLon0.09_PT063H.grib2 2026-04-25 03:03 663K
20260425T00Z_MSC_RDPS_WindU_IsbL-0925_RLatLon0.09_PT063H.grib2 2026-04-25 03:03 670K
20260425T00Z_MSC_RDPS_WindU_IsbL-0950_RLatLon0.09_PT063H.grib2 2026-04-25 03:03 661K
20260425T00Z_MSC_RDPS_WindU_IsbL-0970_RLatLon0.09_PT063H.grib2 2026-04-25 03:03 656K
20260425T00Z_MSC_RDPS_WindU_IsbL-0985_RLatLon0.09_PT063H.grib2 2026-04-25 03:03 658K
20260425T00Z_MSC_RDPS_WindU_IsbL-1000_RLatLon0.09_PT063H.grib2 2026-04-25 03:03 658K
20260425T00Z_MSC_RDPS_WindU_IsbL-1015_RLatLon0.09_PT063H.grib2 2026-04-25 03:03 654K
20260425T00Z_MSC_RDPS_WindV_AGL-10m_RLatLon0.09_PT063H.grib2 2026-04-25 03:03 438K
20260425T00Z_MSC_RDPS_WindV_AGL-120m_RLatLon0.09_PT063H.grib2 2026-04-25 03:03 423K
20260425T00Z_MSC_RDPS_WindV_AGL-40m_RLatLon0.09_PT063H.grib2 2026-04-25 03:03 543K
20260425T00Z_MSC_RDPS_WindV_AGL-80m_RLatLon0.09_PT063H.grib2 2026-04-25 03:03 541K
20260425T00Z_MSC_RDPS_WindV_IsbL-0001_RLatLon0.09_PT063H.grib2 2026-04-25 03:03 291K
20260425T00Z_MSC_RDPS_WindV_IsbL-0005_RLatLon0.09_PT063H.grib2 2026-04-25 03:03 331K
20260425T00Z_MSC_RDPS_WindV_IsbL-0010_RLatLon0.09_PT063H.grib2 2026-04-25 03:03 303K
20260425T00Z_MSC_RDPS_WindV_IsbL-0020_RLatLon0.09_PT063H.grib2 2026-04-25 03:03 318K
20260425T00Z_MSC_RDPS_WindV_IsbL-0030_RLatLon0.09_PT063H.grib2 2026-04-25 03:03 319K
20260425T00Z_MSC_RDPS_WindV_IsbL-0050_RLatLon0.09_PT063H.grib2 2026-04-25 03:03 348K
20260425T00Z_MSC_RDPS_WindV_IsbL-0100_RLatLon0.09_PT063H.grib2 2026-04-25 03:03 326K
20260425T00Z_MSC_RDPS_WindV_IsbL-0150_RLatLon0.09_PT063H.grib2 2026-04-25 03:03 384K
20260425T00Z_MSC_RDPS_WindV_IsbL-0175_RLatLon0.09_PT063H.grib2 2026-04-25 03:03 317K
20260425T00Z_MSC_RDPS_WindV_IsbL-0200_RLatLon0.09_PT063H.grib2 2026-04-25 03:03 330K
20260425T00Z_MSC_RDPS_WindV_IsbL-0225_RLatLon0.09_PT063H.grib2 2026-04-25 03:03 335K
20260425T00Z_MSC_RDPS_WindV_IsbL-0250_RLatLon0.09_PT063H.grib2 2026-04-25 03:03 360K
20260425T00Z_MSC_RDPS_WindV_IsbL-0275_RLatLon0.09_PT063H.grib2 2026-04-25 03:03 372K
20260425T00Z_MSC_RDPS_WindV_IsbL-0300_RLatLon0.09_PT063H.grib2 2026-04-25 03:03 370K
20260425T00Z_MSC_RDPS_WindV_IsbL-0350_RLatLon0.09_PT063H.grib2 2026-04-25 03:03 353K
20260425T00Z_MSC_RDPS_WindV_IsbL-0400_RLatLon0.09_PT063H.grib2 2026-04-25 03:03 356K
20260425T00Z_MSC_RDPS_WindV_IsbL-0450_RLatLon0.09_PT063H.grib2 2026-04-25 03:03 456K
20260425T00Z_MSC_RDPS_WindV_IsbL-0500_RLatLon0.09_PT063H.grib2 2026-04-25 03:03 455K
20260425T00Z_MSC_RDPS_WindV_IsbL-0550_RLatLon0.09_PT063H.grib2 2026-04-25 03:03 456K
20260425T00Z_MSC_RDPS_WindV_IsbL-0600_RLatLon0.09_PT063H.grib2 2026-04-25 03:03 465K
20260425T00Z_MSC_RDPS_WindV_IsbL-0650_RLatLon0.09_PT063H.grib2 2026-04-25 03:03 484K
20260425T00Z_MSC_RDPS_WindV_IsbL-0700_RLatLon0.09_PT063H.grib2 2026-04-25 03:03 504K
20260425T00Z_MSC_RDPS_WindV_IsbL-0750_RLatLon0.09_PT063H.grib2 2026-04-25 03:03 517K
20260425T00Z_MSC_RDPS_WindV_IsbL-0800_RLatLon0.09_PT063H.grib2 2026-04-25 03:03 566K
20260425T00Z_MSC_RDPS_WindV_IsbL-0850_RLatLon0.09_PT063H.grib2 2026-04-25 03:03 618K
20260425T00Z_MSC_RDPS_WindV_IsbL-0875_RLatLon0.09_PT063H.grib2 2026-04-25 03:03 639K
20260425T00Z_MSC_RDPS_WindV_IsbL-0900_RLatLon0.09_PT063H.grib2 2026-04-25 03:03 653K
20260425T00Z_MSC_RDPS_WindV_IsbL-0925_RLatLon0.09_PT063H.grib2 2026-04-25 03:03 661K
20260425T00Z_MSC_RDPS_WindV_IsbL-0950_RLatLon0.09_PT063H.grib2 2026-04-25 03:03 658K
20260425T00Z_MSC_RDPS_WindV_IsbL-0970_RLatLon0.09_PT063H.grib2 2026-04-25 03:03 654K
20260425T00Z_MSC_RDPS_WindV_IsbL-0985_RLatLon0.09_PT063H.grib2 2026-04-25 03:03 655K
20260425T00Z_MSC_RDPS_WindV_IsbL-1000_RLatLon0.09_PT063H.grib2 2026-04-25 03:03 795K
20260425T00Z_MSC_RDPS_WindV_IsbL-1015_RLatLon0.09_PT063H.grib2 2026-04-25 03:03 790K